Flag for Canada

Past Weather in New Chelsea-New Melbourne-Brownsdale-Sibley's Cove-Lead Cove, Newfoundland and Labrador, Canada — Yesterday and Last 2 Weeks

Now
46 °F

Passing clouds.


Feels Like: 41 °F
Forecast: 53 / 42 °F
Wind: 13 mph from Northeast

Location: St. John's
Current Time: Sep 19, 2020 at 10:43:40 pm
Latest Report: Sep 19, 2020 at 9:30 pm
Visibility: 15 mi
Pressure30.06 "Hg
Humidity: 82%
Dew Point: 41 °F
Location of New Chelsea-New Melbourne-Brownsdale-Sibley's Cove-Lead CoveLocation

Past Weather in New Chelsea-New Melbourne-Brownsdale-Sibley's Cove-Lead Cove — Graph

°F

New Chelsea-New Melbourne-Brownsdale-Sibley's Cove-Lead Cove Temperature Yesterday

Maximum temperature yesterday: 68 °F (at 11:30 am)
Minimum temperature yesterday: 59 °F (at 5:30 am)
Average temperature yesterday: 63 °F

High & Low Weather Summary for the Past Weeks

 TemperatureHumidityPressure
High77 °F (Sep 5, 1:30 pm)100% (Sep 4, 9:30 pm)30.44 "Hg (Sep 4, 9:30 pm)
Low43 °F (Sep 12, 5:30 am)30% (Sep 6, 1:30 pm)29.60 "Hg (Sep 19, 6:30 am)
Average59 °F82%30.10 "Hg
* Reported Sep 4 9:30 pm — Sep 19 9:30 pm, New Chelsea-New Melbourne-Brownsdale-Sibley's Cove-Lead Cove. Weather by CustomWeather, © 2020

Note: Actual official high and low records may vary slightly from our data, if they occured in-between our weather recording intervals... More about our weather records

New Chelsea-New Melbourne-Brownsdale-Sibley's Cove-Lead Cove Weather History for the Previous 24 Hours

Scroll right to see more
 ConditionsComfort  
Time TempWeatherWind HumidityBarometerVisibility
9:30 pm
Sat, Sep 19
46 °FPassing clouds.13 mph82%30.06 "Hg15 mi
8:30 pm46 °FOvercast.15 mph87%30.04 "Hg15 mi
8:08 pm46 °FPassing clouds.18 mph87%30.01 "Hg15 mi
7:30 pm48 °FPassing clouds.16 mph87%29.99 "Hg15 mi
6:30 pm48 °FOvercast.15 mph87%29.96 "Hg15 mi
5:30 pm48 °FOvercast.16 mph87%29.93 "Hg15 mi
4:30 pm48 °FOvercast.15 mph94%29.90 "Hg15 mi
4:20 pm48 °FOvercast.15 mph94%29.90 "Hg15 mi
3:30 pm50 °FDrizzle. Overcast.16 mph94%29.87 "Hg15 mi
2:30 pm48 °FDrizzle. Low clouds.20 mph100%29.85 "Hg15 mi
1:30 pm50 °FDrizzle. Low clouds.18 mph94%29.84 "Hg15 mi
12:30 pm50 °FDrizzle. Fog.16 mph94%29.82 "Hg2 mi
12:02 pm50 °FDrizzle. Fog.15 mph100%29.82 "Hg2 mi
11:30 am50 °FDrizzle. Low clouds.15 mph100%29.79 "Hg8 mi
10:30 am50 °FDrizzle. Low clouds.18 mph100%29.77 "Hg15 mi
10:21 am50 °FDrizzle. Low clouds.13 mph100%29.76 "Hg15 mi
9:30 am52 °FDrizzle. Fog.17 mph94%29.73 "Hg1 mi
8:30 am52 °FDrizzle. Low clouds.12 mph100%29.68 "Hg15 mi
7:30 am52 °FLight rain. Low clouds.16 mph100%29.67 "Hg8 mi
7:20 am54 °FLight rain. Low clouds.16 mph94%29.66 "Hg8 mi
6:30 am63 °FHeavy rain. Low clouds.33 mph100%29.60 "Hg5 mi
5:30 am63 °FHeavy rain. Low clouds.24 mph100%29.67 "Hg6 mi
5:09 am63 °FHeavy rain. Low clouds.30 mph94%29.69 "Hg8 mi
4:30 am63 °FHeavy rain. Low clouds.24 mph100%29.71 "Hg8 mi
4:20 am63 °FHeavy rain. Low clouds.28 mph100%29.72 "Hg8 mi
3:38 am63 °FHeavy rain. Low clouds.29 mph100%29.75 "Hg3 mi
3:06 am63 °FRain. Low clouds.28 mph100%29.75 "Hg10 mi
2:30 am63 °FLight rain. Low clouds.32 mph100%29.78 "Hg15 mi
1:57 am63 °FLight rain. Low clouds.28 mph94%29.80 "Hg15 mi
1:30 am63 °FLight rain. Low clouds.24 mph94%29.80 "Hg15 mi
12:30 am61 °FLight rain. Low clouds.28 mph100%29.86 "Hg12 mi
11:30 pm
Fri, Sep 18
61 °FLight rain. Low clouds.23 mph100%29.90 "Hg15 mi
10:30 pm61 °FLight rain. Low clouds.24 mph100%29.93 "Hg15 mi
Weather by CustomWeather, © 2020

See weather overview